Spokane Felts, WA

8:12 AM PDT on May 23, 2017 (GMT -0700)
Felts

Weather History for KSFF - April, 2013

Change the Weather History Date:

Wednesday, April 10, 2013

  Actual Average Record
Temperature  
Mean Temperature 50 °F 46 °F  
Max Temperature 61 °F 57 °F 72 °F (2016)
Min Temperature 38 °F 36 °F 28 °F (1999)
Degree Days  
Heating Degree Days 15 19  
Month to date heating degree days 149 196  
Since 1 July heating degree days 4945 5517  
Cooling Degree Days 0 0  
Month to date cooling degree days 0 0  
Year to date cooling degree days 0 0  
Growing Degree Days 2 (Base 50)    
Moisture  
Dew Point 35 °F    
Average Humidity 58    
Maximum Humidity 77    
Minimum Humidity 39    
Precipitation  
Precipitation 0.06 in 0.04 in 0.18 in (2006)
Month to date precipitation 0.45 0.49  
Year to date precipitation 3.68 5.39  
Sea Level Pressure  
Sea Level Pressure 29.98 in    
Wind  
Wind Speed 9 mph (SW)    
Max Wind Speed 28 mph    
Max Gust Speed 41 mph    
Visibility 10 miles    
Events Rain    
T = Trace of Precipitation, MM = Missing Value Source: NWS Daily Summary

Daily Weather History Graph

Daily Weather History Graph

Search for Another Location

Airport or City:

Trip Planner

Search our weather history database for the weather conditions in past years. The results will help you decide how hot, cold, wet, or windy it might be!

Date:

Astronomy

Apr. 10, 2013 Rise Set
Actual Time 6:09 AM PDT 7:32 PM PDT
Civil Twilight 5:37 AM PDT 8:04 PM PDT
Nautical Twilight 4:58 AM PDT 8:43 PM PDT
Astronomical Twilight 4:17 AM PDT 9:25 PM PDT
Moon 6:05 AM PDT (4/10) 8:17 PM PDT (4/10)
Length of Visible Light 14h 27m
Length of Day
13h 23m
New Moon, 0% of the Moon is Illuminated
Apr 10
New Moon
Apr 18
First Quarter
Apr 25
Full
May 2
Last Quarter
May 9
New

Hourly Weather History & Observations

Time (PDT) Temp. Windchill Dew Point Humidity Pressure Visibility Wind Dir Wind Speed Gust Speed Precip Events Conditions
12:53 AM 46.9 °F - 34.0 °F 61% 30.20 in 10.0 mi Calm Calm - N/A   Overcast
1:53 AM 46.0 °F - 35.1 °F 66% 30.18 in 10.0 mi Calm Calm - N/A   Overcast
2:53 AM 46.0 °F 44.8 °F 34.0 °F 63% 30.15 in 10.0 mi NE 3.5 mph - N/A   Overcast
3:53 AM 46.0 °F 44.8 °F 34.0 °F 63% 30.15 in 10.0 mi NE 3.5 mph - N/A   Overcast
4:53 AM 46.9 °F - 32.0 °F 56% 30.12 in 10.0 mi East 6.9 mph - N/A   Overcast
5:53 AM 46.9 °F - 33.1 °F 59% 30.09 in 10.0 mi East 8.1 mph - N/A   Overcast
6:53 AM 48.0 °F - 32.0 °F 54% 30.09 in 10.0 mi Variable 3.5 mph - N/A   Overcast
7:53 AM 48.9 °F - 32.0 °F 52% 30.06 in 10.0 mi Variable 5.8 mph - N/A   Mostly Cloudy
8:53 AM 51.1 °F - 32.0 °F 48% 30.03 in 10.0 mi ESE 6.9 mph - N/A   Overcast
9:53 AM 52.0 °F - 33.1 °F 49% 29.99 in 10.0 mi SW 10.4 mph 17.3 mph N/A   Overcast
10:53 AM 53.1 °F - 36.0 °F 52% 29.94 in 10.0 mi Variable 6.9 mph 16.1 mph N/A   Overcast
11:53 AM 53.1 °F - 37.0 °F 55% 29.92 in 10.0 mi SSW 18.4 mph 27.6 mph N/A   Overcast
12:53 PM 53.1 °F - 39.9 °F 61% 29.87 in 10.0 mi SSW 18.4 mph 27.6 mph 0.00 in Rain Light Rain
1:53 PM 51.1 °F - 44.1 °F 77% 29.86 in 7.0 mi SSW 13.8 mph - 0.06 in Rain Light Rain
2:53 PM 55.0 °F - 46.0 °F 72% 29.82 in 10.0 mi SW 16.1 mph 20.7 mph 0.00 in   Mostly Cloudy
3:53 PM 59.0 °F - 43.0 °F 55% 29.78 in 10.0 mi WSW 18.4 mph 25.3 mph 0.00 in   Mostly Cloudy
4:53 PM 60.1 °F - 35.1 °F 39% 29.80 in 10.0 mi West 21.9 mph 34.5 mph N/A   Mostly Cloudy
5:53 PM 57.9 °F - 33.1 °F 39% 29.82 in 10.0 mi West 15.0 mph 27.6 mph N/A   Mostly Cloudy
6:53 PM 57.0 °F - 33.1 °F 40% 29.86 in 10.0 mi West 18.4 mph 32.2 mph N/A   Mostly Cloudy
7:53 PM 53.1 °F - 37.0 °F 55% 29.90 in 10.0 mi Calm Calm - N/A   Mostly Cloudy
8:53 PM 46.0 °F 44.8 °F 37.0 °F 71% 29.96 in 10.0 mi Variable 3.5 mph - N/A   Partly Cloudy
9:53 PM 46.0 °F 43.9 °F 35.1 °F 66% 29.99 in 10.0 mi West 4.6 mph - N/A   Mostly Cloudy
10:53 PM 45.0 °F 42.6 °F 30.9 °F 58% 30.00 in 10.0 mi WSW 4.6 mph - N/A   Clear
11:53 PM 43.0 °F 41.3 °F 32.0 °F 65% 30.02 in 10.0 mi West 3.5 mph - N/A   Clear